User: anonymous   Login
Location: Caribou
(46.8667°N, 68.0167°W)
Time: 04:18:23
(UTC-04:00)
Language:

SL-08 RB Rocket - Orbit

View from above orbital plane
View from above orbital plane
View from above satellite
View from above satellite

Ground track
Ground track

The orbit data is extracted from the following two-line orbital elements,

1 26387U 00033D   16274.16184498  .00000229  00000-0  47989-4 0  9997
2 26387  98.0075 338.5974 0027907  83.9080 328.7403 14.68195053869720
Epoch (UTC): 30 September 2016 03:53:03
Eccentricity: 0.0027907
inclination: 98.0075°
perigee height: 647 km
apogee height: 686 km
right ascension of ascending node: 338.5974°
argument of perigee: 83.9080°
revolutions per day: 14.68195053
mean anomaly at epoch: 328.7403°
orbit number at epoch: 86972

The dashed part of the orbit path shows where the satellite is in the earth's shadow,  

DLR